Regional Weather Roundup
Issued by NWS

Home | Current Version | Previous Version | Graphics & Text | Print | Product List | Glossary On
Versions: 1 2 3 4 5 6 7 8 9 10 11 12 13 14 15 16 17 18 19 20 21 22 23 24 25 26 27 28 29 30 31 32 33 34 35 36 37 38 39 40 41 42 43 44 45 46 47 48 49 50
526
ASUS43 KMPX 211301
RWRMN
WEATHER ROUNDUP FOR MINNESOTA
NATIONAL WEATHER SERVICE TWIN CITIES/CHANHASSEN MN
700 AM CST SAT JAN 21 2017


NOTE: "FAIR" INDICATES FEW OR NO CLOUDS BELOW 12,000 FEET WITH NO
SIGNIFICANT WEATHER AND/OR OBSTRUCTIONS TO VISIBILITY. N/A MEANS
CURRENT SKY AND/OR WEATHER CONDITIONS ARE NOT AVAILABLE.

MNZ060>063-068>070-211400-
   Twin Cities Metro

CITY           SKY/WX    TMP DP  RH WIND       PRES   REMARKS
TWIN CITIES    CLOUDY    35  33  92 E7        29.43F FOG     WCI  29
ST PAUL        CLOUDY    35  35 100 E7        29.45S FOG     WCI  29
CRYSTAL        CLOUDY    35  33  92 E5        29.42F FOG     WCI  31
BLAINE         DRIZZLE   36  36 100 E6        29.43F
LAKEVILLE      MIX PCPN  34  34 100 E8        29.41F VSB 1/4 WCI  27
EDEN PRAIRIE   CLOUDY    36  34  92 NE8       29.41F FOG
SOUTH ST PAUL  CLOUDY    35  35  99 NE6       29.43F FOG     WCI  30
LAKE ELMO      CLOUDY    34  34 100 NE7       29.45S FOG     WCI  28
$$
MNZ001>005-007-008-013>017-022>024-027-028-211400-
   Northwest Minnesota

CITY           SKY/WX    TMP DP  RH WIND       PRES   REMARKS
BEMIDJI        FOG       32  32 100 E8        29.45R VSB 1   WCI  25
HALLOCK        CLOUDY    36  34  93 E10       29.42R
ROSEAU         CLOUDY    36  30  80 SE7       29.45S
WARROAD        LGT RAIN  34  30  86 SE3       29.46S
THIEF RVR FALL CLOUDY    34  33  96 E12       29.43R WCI  25
CROOKSTON      CLOUDY    36  34  93 SE8       29.42R
FOSSTON        CLOUDY    34  32  93 SE10      29.43R WCI  26
DETROIT LAKES  CLOUDY    34  34 100 SE8       29.42R WCI  27
MOORHEAD       CLOUDY    36  34  93 E6        29.40R
PARK RAPIDS    FOG       34  31  88 E8        29.43R VSB 1   WCI  27
MAHNOMEN       CLOUDY    34  33  96 SE13      29.40F WCI  25
$$
MNZ006-009>011-018-025>026-211400-
   North Central Minnesota

CITY           SKY/WX    TMP DP  RH WIND       PRES   REMARKS
BAUDETTE       CLOUDY    33  33 100 E9        29.47S FOG     WCI  25
FLAG ISLAND    CLOUDY    34  32  93 E8        29.47S FOG     WCI  27
INTL FALLS     CLOUDY    33  32  96 SE6       29.50S WCI  28
WASKISH        CLOUDY    34  34 100 E6        29.47S WCI  29
BIG FORK       FLURRIES  34  34 100 SE3       29.49R
LONGVILLE      CLOUDY    34  34 100 CALM      29.46S FOG
GRAND RAPIDS   MIX PCPN  33  32  96 E5        29.49F VSB 3/4 WCI  29
CRANE LAKE     CLOUDY    32  32 100 CALM      29.54S
ORR            CLOUDY    34  30  86 SE3       29.49R FOG
COOK           CLOUDY    34  34 100 CALM      29.51S
WALKER         CLOUDY    32  32 100 E3        29.45S FOG
$$
MNZ012-019>021-037-211400-
   Northeast Minnesota

CITY           SKY/WX    TMP DP  RH WIND       PRES   REMARKS
DULUTH         DRZL/FOG  34  34 100 E5        29.49F VSB 1/16WCI  30
ELY            CLOUDY    34  34 100 CALM      29.51F
HIBBING        FOG       32  32 100 SE7       29.49S VSB 1   WCI  26
EVELETH        FOG       34  33  98 CALM      29.51S VSB 3/4
DULUTH HARBOR  CLOUDY    34  32  93 CALM      29.52F
TWO HARBORS    HAZE      37  32  81 CALM      29.50F VSB 1/2
SILVER BAY     FOG       36  36 100 CALM      29.52S VSB 1/2
GRAND MARAIS     N/A     37  37 100 E5        29.57S
G MARAIS ARPRT MIX PCPN  30  28  93 E5        29.54S VSB 1/4 WCI  25
$$
MNZ029>031-032-039>041-046>048-054>057-064-211400-
   West Central Minnesota

CITY           SKY/WX    TMP DP  RH WIND       PRES   REMARKS
FERGUS FALLS   CLOUDY    36  36 100 E8        29.43R
WHEATON        CLOUDY    39  39 100 E9        29.40R FOG
MORRIS         CLOUDY    34  34 100 E9        29.38R FOG     WCI  26
ALEXANDRIA     CLOUDY    33  33 100 E12       29.41R FOG     WCI  24
ELBOW LAKE     CLOUDY    33  33  99 SE12      29.39R FOG     WCI  25
WADENA         FOG       32  32 100 E6        29.42S VSB 1/2 WCI  26
GLENWOOD       FOG       34  34 100 E10       29.41R VSB 3/4 WCI  26
APPLETON       CLOUDY    36  34  93 E10       29.38S FOG
BENSON         CLOUDY    36  32  87 SE6       29.41R
ORTONVILLE     CLOUDY    34  30  86 CALM      29.37S FOG
MADISON        CLOUDY    36  36 100 SE9       29.37S FOG
WILLMAR        FOG       36  36 100 E8        29.41R VSB 1/2
$$
MNZ033>034-036-042>043-049>051-058-059-211400-
   Central Minnesota

CITY           SKY/WX    TMP DP  RH WIND       PRES   REMARKS
ST CLOUD       FOG       33  33 100 E7        29.44R VSB 1/4 WCI  27
SAUK CENTRE    FOG       32  32 100 E9        29.41S VSB 1/2 WCI  25
PAYNESVILLE    SNOW      33  33 100 E7        29.42S VSB 1/2 WCI  27
AITKIN         FOG       36  32  87 NE3       29.45F VSB 1/2
PINE RIVER     FOG       34  34 100 E7        29.49F VSB 3/4 WCI  28
BRAINERD       FOG       33  33 100 E6        29.45F VSB 1/2 WCI  28
STAPLES        FOG       32  32 100 E5        29.43S VSB 1/2 WCI  27
LONG PRAIRIE   SNOW      32  32 100 NE8       29.42S VSB 1/2 WCI  25
LITTLE FALLS   FOG       32  32 100 E5        29.44S VSB 1   WCI  27
LITCHFIELD     DRZL/FOG  36  36 100 E6        29.41S VSB 1/2
BUFFALO        FOG       34  33  96 NE7       29.43F VSB 1   WCI  28
MAPLE LAKE     FOG       35  35 100 MISG      29.43F VSB 1/2
HUTCHINSON     DRIZZLE   35  35 100 E8        29.41S WCI  28
$$
MNZ037-044-045-052-053-211400-
   East Central Minnesota

CITY           SKY/WX    TMP DP  RH WIND       PRES   REMARKS
PRINCETON      FOG       36  34  93 E6        29.45R VSB 3/4
MORA           CLOUDY    32  32 100 E5        29.47F FOG     WCI  27
CAMBRIDGE      DRIZZLE   36  36 100 NE5       29.43F
RUSH CITY      LGT RAIN  34  32  93 E5        29.46F WCI  30
MOOSE LAKE     CLOUDY    34  32  93 E3        29.47S FOG
HINCKLEY       FOG       34  34 100 E5        29.47S VSB 1   WCI  30
CLOQUET        FOG       34  34 100 E5        29.48F VSB 1/4 WCI  30
MCGREGOR       CLOUDY    34  34 100 E7        29.47F VSB 1   WCI  28
$$
MNZ071>073-080-081-089-090-097-098-211400-
   Southwest Minnesota

CITY           SKY/WX    TMP DP  RH WIND       PRES   REMARKS
MONTEVIDEO     FOG       34  34 100 SE7       29.40R VSB 1   WCI  28
GRANITE FALLS  RAIN      35  35  99 E8        29.39F WCI  29
CANBY          FOG       34  34 100 CALM      29.37S VSB 1
MARSHALL       FOG       33  33 100 SE8       29.37S VSB 1/2 WCI  26
REDWOOD FALLS  FOG       34  33  96 E5        29.39S VSB 1/4 WCI  30
OLIVIA         FOG       34  34 100 E5        29.39S VSB 1   WCI  30
PIPESTONE      FOG       36  36 100 SE6       29.32F VSB 1/4
WINDOM         FOG       34  34 100 E3        29.37S VSB 1/2
WORTHINGTON    FOG       33  33 100 SE6       29.36S VSB 1/4 WCI  28
JACKSON        FOG       32  32 100 E5        29.37S VSB 1/4 WCI  27
TRACY          DRZL/FOG  34  34 100 SE7       29.37S VSB 1   WCI  28
SLAYTON        FOG       32  32 100 SE3       29.36S VSB 1/2
$$
MNZ065>067-074>077-082>085-091>093-211400-
   South Central Minnesota

CITY           SKY/WX    TMP DP  RH WIND       PRES   REMARKS
MANKATO        LGT RAIN  35  34  96 E7        29.40S WCI  29
NEW ULM        LGT RAIN  34  34 100 E3        29.39S
ST JAMES       DRZL/FOG  34  34 100 E7        29.39F VSB 1   WCI  28
FAIRMONT       LGT RAIN  34  33  96 E5        29.38S VSB 3/4 WCI  30
GLENCOE        DRIZZLE   35  35 100 E6        29.40S WCI  30
OWATONNA       RAIN      36  34  93 E9        29.39F
WASECA         CLOUDY    34  34 100 E9        29.40S FOG     WCI  26
ALBERT LEA     DRIZZLE   36  36 100 E5        29.37F
$$
MNZ078>079-086>088-094>096-211400-
   Southeast Minnesota

CITY           SKY/WX    TMP DP  RH WIND       PRES   REMARKS
ROCHESTER      LGT RAIN  33  33 100 NE6       29.40R FOG     WCI  28
RED WING       DRIZZLE   36  34  93 E9        29.43S
STANTON        RAIN      35  33  93 NE5       29.40S VSB 1   WCI  31
DODGE CENTER   DRIZZLE   34  34 100 CALM      29.39S
WINONA         LGT RAIN  36  36 100 SE3       29.44F
AUSTIN         RAIN      34  34 100 E8        29.38S WCI  27
PRESTON        FOG       34  33  96 E7        29.40S VSB 1/2 WCI  28
$$
ABBREVIATIONS USED IN REMARKS
   TC - TEMPERATURES IN CELSIUS
  WCI - WIND CHILL INDEX
   HX - HEAT INDEX
  VSB - VISIBILITY
$$




USA.gov is the U.S. government's official web portal to all federal, state and local government web resources and services.